Location: Tucson
(32.2217°N, 110.9265°W)
Time: 01:26:04
(UTC-07:00)

LightSail 2 - Pass Details

Date: 09 December 2019
Orbit: 704 x 719 km, 24.0° (Epoch: 24 January)

Event Time Altitude Azimuth Distance (km) Brightness Sun altitude
Rises 18:13:37 0° 259° (W) 3,100 10.4 -11.4°
Reaches altitude 10° 18:16:25 10° 246° (WSW) 2,176 9.2 -12.0°
Maximum altitude 18:20:33 24° 192° (SSW) 1,423 7.1 -12.8°
Drops below altitude 10° 18:24:39 10° 139° (SE) 2,164 7.4 -13.7°
Enters shadow 18:26:42 - 128° (SE) 2,822 7.9 -14.1°
